Location: Del Amo
(33.8464°N, 118.2104°W)
Time: 01:38:35
(UTC+00:00)

SR - Pass Details

Date: 19 September 2024
Orbit: 578 x 855 km, 66.7° (Epoch: 02 October)

Event Time Altitude Azimuth Distance (km) Brightness Sun altitude
Rises 05:20:26 0° 334° (NNW) 2,998 ? -40.9°
Enters shadow 05:22:34 10° 335° (NNW) 2,160 ? -41.2°
Reaches altitude 10° 05:22:40 10° 335° (NNW) 2,123 - -41.3°
Maximum altitude 05:27:31 85° 64° (ENE) 729 - -42.0°
Drops below altitude 10° 05:32:46 10° 153° (SSE) 2,297 - -42.9°
Sets 05:35:15 0° 154° (SSE) 3,263 - -43.3°
